Theta_e
329 325 315 312 301 299 296 302 307 308 313 319 321 320 317 320 315 308 330 334 338 338 341 343 346 347 347 348 348 348 348 349 349 350 350 350 350 350 350 350 350 351 351 348 347 345 344 344 346
318 317 311 306 297 289 294 302 307 312 318 321 320 321 319 317 328 326 327 336 338 339 339 341 346 346 347 347 348 347 348 349 350 350 350 350 349 348 348 350 349 349 350 347 346 344 343 344 345
316 314 303 298 291 291 293 304 310 314 319 320 320 324 322 322 328 328 332 336 337 337 339 342 345 345 347 347 347 347 348 347 348 349 349 349 348 348 348 349 348 348 347 343 343 343 343 343 343
309 306 302 292 290 295 299 305 311 311 314 316 319 317 325 333 331 332 334 337 336 338 340 343 344 346 346 346 347 347 346 346 346 347 348 349 347 346 347 348 348 349 346 343 342 339 339 339 338
304 298 292 288 291 296 301 303 312 311 315 317 320 318 319 332 333 332 334 336 336 338 340 342 344 345 346 347 346 346 346 345 346 346 348 348 348 348 348 346 345 344 343 340 339 339 339 339 338
298 295 286 288 292 298 300 306 313 313 314 315 321 319 321 332 330 331 335 335 337 337 339 342 346 346 345 345 345 345 345 345 345 346 347 347 348 346 345 345 344 342 341 340 339 339 339 338 338
296 290 286 287 291 294 300 305 311 313 311 311 325 319 323 328 332 334 335 334 337 338 339 341 342 344 344 342 343 343 344 344 344 345 346 345 344 344 344 343 341 340 339 339 340 339 339 338 338
298 294 289 289 291 292 302 303 303 311 313 323 326 317 317 328 334 335 333 333 335 337 338 339 340 339 339 340 342 342 343 343 344 344 343 342 342 342 341 340 339 338 338 339 340 339 338 340 340
298 290 288 290 291 297 303 298 301 324 323 322 324 324 327 334 334 332 331 332 334 335 336 337 335 335 337 340 343 343 344 343 342 342 341 337 336 335 335 336 337 336 335 336 337 338 337 338 338
293 288 292 296 297 298 300 297 302 304 319 317 317 327 333 333 332 329 328 327 329 330 333 334 333 333 337 340 340 339 340 338 337 337 333 330 329 329 332 335 335 334 334 334 336 337 337 336 333
290 292 294 297 300 301 300 300 301 302 313 316 314 322 330 330 330 329 329 329 328 331 333 333 333 332 332 334 333 334 335 334 332 332 328 327 327 329 328 327 327 323 328 325 330 335 335 332 330
290 292 293 297 297 297 297 297 299 300 311 322 318 325 329 329 329 330 329 330 331 331 332 333 333 328 329 331 330 329 330 328 327 329 326 326 324 324 323 323 321 318 321 323 329 334 334 330 329
290 291 295 296 296 297 299 297 299 300 316 326 325 325 326 328 329 331 332 332 332 330 332 332 332 326 329 328 325 325 326 327 326 326 327 325 323 322 320 319 319 319 320 326 333 332 331 328 327
293 294 295 296 296 297 296 297 296 301 322 324 324 323 324 325 328 329 330 330 330 331 331 332 330 326 329 326 323 323 322 323 324 326 328 326 325 321 319 318 319 319 321 331 332 331 328 325 324
294 291 294 294 295 294 296 293 294 300 324 322 322 323 324 325 326 328 330 330 330 330 332 331 329 326 327 324 321 321 322 322 321 324 326 327 323 322 321 319 320 322 326 335 330 328 327 325 323
289 288 285 293 294 295 293 289 295 297 322 320 321 322 323 324 325 327 329 330 330 329 331 331 331 325 326 325 322 324 323 323 322 325 326 326 325 323 325 323 332 335 332 331 327 327 325 323 320
286 284 286 287 294 291 290 290 296 296 321 319 320 321 322 323 324 326 328 328 329 329 330 329 330 324 324 327 324 326 326 325 324 327 328 327 329 329 328 332 334 334 331 327 325 322 323 319 318
284 283 282 285 287 289 289 287 293 295 311 319 320 321 322 322 322 325 327 329 328 328 330 329 330 328 325 328 327 327 329 327 329 329 329 330 332 333 332 331 330 332 328 325 323 321 318 319 317
290 286 285 288 290 289 289 291 292 292 295 316 318 320 321 322 324 323 327 328 327 327 328 327 327 328 326 326 325 325 327 327 329 330 330 332 335 335 334 333 331 330 327 324 322 319 316 311 310
289 287 286 288 291 290 290 287 290 294 292 308 318 319 320 322 323 319 325 326 326 325 327 326 326 327 327 328 328 328 327 327 331 330 330 332 334 333 333 331 329 327 324 323 322 318 312 308 309
288 287 287 287 288 288 285 285 288 292 295 296 316 321 322 321 321 317 323 325 325 323 325 326 325 327 328 327 326 326 324 325 327 330 330 331 332 331 331 330 328 325 326 324 321 317 311 309 309
285 292 291 289 285 280 286 281 286 289 292 296 301 318 321 322 323 318 321 322 323 323 326 326 326 327 328 326 326 327 326 324 327 330 331 330 332 330 330 328 326 323 324 323 320 316 312 311 307
288 293 290 289 285 283 285 280 284 287 289 294 297 313 319 322 323 319 319 321 323 324 324 326 326 327 328 326 326 326 326 325 330 330 328 330 329 330 329 326 322 321 322 322 320 316 311 311 308
293 291 289 287 285 279 285 282 285 285 291 294 298 299 317 320 322 323 320 321 322 324 324 326 326 326 327 327 324 325 326 325 329 329 329 328 328 325 325 324 321 321 321 320 320 318 313 310 309
288 287 279 278 277 277 287 282 286 290 291 296 297 294 312 319 322 322 320 319 321 322 323 325 326 325 326 327 325 325 326 326 328 329 329 326 324 320 321 320 318 318 318 318 318 317 314 312 309
285 286 280 275 275 279 287 280 286 292 304 305 305 303 304 317 321 322 321 319 321 322 323 324 325 325 326 327 324 324 327 328 329 329 329 327 325 321 319 319 319 317 317 318 317 315 313 311 309
288 284 287 283 283 279 281 284 290 302 301 304 309 311 302 314 320 321 321 320 322 323 323 323 325 326 325 326 327 325 328 328 327 327 326 326 324 321 319 318 317 316 315 314 313 312 311 310 308
286 287 282 285 277 276 279 280 283 295 297 303 305 309 310 315 317 319 320 320 321 323 323 323 326 326 326 325 326 327 328 328 327 326 324 323 320 320 316 316 316 313 312 311 312 311 312 310 308
282 279 282 283 284 279 276 279 293 294 299 301 303 305 308 309 312 314 314 318 320 323 322 323 325 325 326 326 326 328 327 327 327 325 323 322 320 318 317 316 314 312 311 312 311 311 309 309 307
284 279 280 276 276 279 279 279 296 296 297 302 304 303 304 306 309 313 315 316 316 319 323 323 321 320 322 326 326 325 323 323 323 323 322 320 319 318 317 314 312 311 310 311 310 308 307 307 305
Wind_Speed
8 6 3 3 3 4 4 7 4 4 2 5 8 4 9 7 8 5 8 13 18 14 12 11 15 16 18 18 18 18 20 21 20 21 21 20 19 17 16 17 16 16 17 17 18 18 19 20 18
5 4 4 2 4 2 5 4 6 9 11 7 16 3 11 9 1 11 9 17 17 15 12 11 15 16 17 17 17 18 19 20 20 20 20 20 19 16 14 15 16 15 16 17 17 18 18 17 15
6 2 4 5 5 7 5 5 7 6 12 11 6 5 7 3 10 12 16 18 16 13 12 12 15 15 17 17 18 18 17 17 19 19 19 19 17 15 14 14 16 15 15 15 16 16 16 12 12
4 4 3 3 9 8 7 5 6 2 4 6 6 9 4 9 14 13 21 18 15 12 12 13 15 15 17 17 18 18 18 17 16 18 19 18 17 16 12 15 15 15 13 14 13 12 12 12 12
3 3 2 4 9 7 7 7 8 7 4 1 1 5 6 2 18 26 21 17 15 12 12 12 14 15 17 16 17 17 18 18 17 17 19 18 16 15 14 16 15 13 12 12 12 11 11 12 10
1 3 1 10 9 7 7 6 7 4 2 3 7 7 6 17 24 19 18 16 12 14 12 12 15 14 16 16 15 14 16 17 18 17 18 18 15 16 16 14 12 11 10 9 10 10 11 10 8
6 4 6 5 6 8 11 10 9 12 6 6 12 10 5 12 19 18 16 15 13 12 12 11 10 12 14 14 15 12 14 15 17 18 17 17 15 15 15 14 13 11 9 10 10 11 11 10 7
5 4 5 6 6 12 13 4 3 12 7 6 11 12 11 10 17 17 16 14 13 10 12 15 11 8 9 9 15 15 13 13 14 16 16 15 14 13 13 12 11 10 8 8 14 14 9 13 12
3 2 8 10 7 17 7 7 4 7 14 4 9 22 27 28 22 17 16 14 13 12 14 15 9 8 9 10 11 15 15 13 14 13 14 11 6 7 8 7 10 9 7 6 16 11 12 18 17
6 6 12 8 8 14 13 5 11 2 11 3 5 13 22 29 27 24 20 19 19 17 14 12 9 9 10 9 10 9 10 6 6 7 6 4 5 5 5 6 8 7 7 6 13 11 16 10 7
6 15 7 13 10 15 21 14 6 4 11 17 21 24 26 26 27 23 21 22 22 18 12 12 12 9 9 8 6 5 5 5 4 6 5 5 5 3 3 2 2 2 5 3 6 8 8 10 7
9 4 6 17 11 13 17 6 12 6 11 17 24 33 29 27 25 25 22 20 20 17 14 14 14 8 7 7 5 6 7 4 4 5 7 6 4 4 4 3 3 3 2 5 5 6 10 11 11
11 5 11 16 12 18 16 17 15 17 6 9 23 31 31 25 23 20 21 19 19 18 16 16 15 10 9 9 6 6 7 7 6 5 5 4 4 5 4 4 4 3 3 3 6 7 9 10 10
4 20 23 18 20 19 20 19 6 15 11 16 27 27 25 26 26 21 21 21 21 19 18 16 16 13 12 9 10 8 6 6 6 6 6 8 6 5 5 4 4 4 4 4 6 8 8 8 8
9 16 17 18 17 16 11 17 10 12 19 21 25 26 23 24 24 23 23 23 22 20 20 18 17 15 14 11 11 7 7 7 5 6 7 8 6 6 6 5 5 5 4 10 7 8 9 8 7
7 5 12 20 15 12 11 23 11 9 20 21 24 24 23 24 28 25 24 22 21 21 21 19 16 16 15 12 11 9 7 8 8 6 6 8 9 7 6 5 4 5 8 9 8 8 7 8 7
7 19 21 8 14 5 10 18 16 10 21 22 20 22 23 22 21 22 26 24 22 22 22 20 19 18 16 12 11 9 12 9 9 7 7 9 8 8 7 7 7 9 10 8 8 4 9 8 6
24 16 9 12 4 8 13 12 11 8 19 23 22 22 23 22 24 25 26 24 24 22 22 20 18 18 17 12 12 8 10 10 9 8 8 10 6 8 7 6 7 9 9 8 6 9 5 8 8
18 12 15 15 7 7 14 18 18 10 10 20 19 21 22 24 21 22 25 25 23 22 23 22 22 18 15 11 13 11 12 8 9 8 9 9 8 11 11 9 9 8 11 11 10 9 12 5 8
19 22 22 9 8 12 17 14 12 12 9 20 21 19 22 22 19 16 24 25 25 24 24 21 23 18 16 12 11 10 8 5 10 7 8 6 8 9 10 11 11 10 9 11 12 12 5 3 6
21 22 22 15 1 6 1 10 11 12 14 9 21 26 20 24 22 20 24 26 25 25 25 24 23 20 17 15 9 5 5 3 4 9 8 7 10 9 10 8 9 7 9 10 10 10 9 10 3
23 23 19 11 5 9 9 13 7 8 13 17 16 23 23 23 22 25 27 26 27 25 23 24 22 20 15 14 13 16 12 9 4 8 7 6 10 9 8 8 7 8 6 10 11 9 10 10 7
24 16 10 13 7 7 12 2 9 3 12 20 19 23 24 24 24 24 26 29 29 26 24 24 23 22 19 16 13 12 12 7 6 6 9 9 7 10 10 8 8 8 6 9 11 8 9 8 7
17 8 6 2 7 11 22 8 15 6 15 23 18 16 24 24 25 26 28 24 23 22 22 20 22 21 20 18 15 13 14 9 11 12 11 9 8 6 8 9 8 8 8 10 9 9 11 8 6
8 13 7 7 5 10 13 8 14 9 11 18 20 14 23 22 23 24 24 20 18 22 21 18 21 20 19 20 17 14 10 12 16 16 13 12 7 4 7 7 8 6 7 7 7 8 8 9 7
8 11 6 8 7 13 13 6 10 10 1 4 5 2 15 24 23 25 22 19 22 24 23 21 22 19 18 18 15 10 8 7 8 11 9 10 10 9 8 8 8 7 7 6 6 4 5 6 6
6 9 5 8 4 1 4 6 5 4 6 8 11 10 2 22 24 24 21 19 22 21 21 21 20 18 16 17 15 14 12 10 11 10 11 10 10 9 11 10 9 7 7 7 6 5 6 6 5
14 8 7 1 11 14 1 4 7 6 5 8 10 11 10 9 6 10 14 16 14 17 16 14 17 21 21 17 13 13 12 10 9 9 11 11 10 12 11 10 10 8 7 6 7 4 4 6 2
14 13 8 5 4 10 6 6 8 4 7 12 11 9 11 11 10 9 6 8 10 12 12 11 14 11 12 15 15 15 11 13 12 12 11 11 11 12 13 12 9 9 9 7 6 5 6 6 6
10 16 13 5 9 4 3 5 16 8 12 14 15 13 13 13 11 9 7 6 8 6 10 13 11 10 7 6 5 6 11 10 12 11 11 12 14 13 13 10 9 7 7 6 7 6 6 7 6
Wind_Direction
144 146 122 71 71 73 242 255 110 165 179 171 101 260 267 291 263 210 135 143 137 141 140 139 128 122 123 128 124 123 118 110 114 117 118 122 124 121 124 119 117 112 110 110 108 108 107 108 107
136 140 51 97 114 170 246 219 166 196 196 177 125 278 270 263 35 125 120 137 138 137 135 138 129 125 125 128 125 125 123 117 118 120 122 120 122 122 110 106 111 108 111 112 113 110 109 110 112
144 166 110 161 169 202 202 198 194 213 203 181 147 99 287 154 143 143 133 138 139 133 133 137 128 126 124 123 127 127 127 125 127 126 120 119 118 119 109 102 110 110 110 115 111 110 114 109 104
160 16 343 175 228 247 183 201 208 235 300 239 178 128 140 159 161 137 142 139 138 136 130 132 125 122 122 121 124 125 128 129 131 132 126 127 132 120 109 112 109 111 115 113 110 114 111 101 96
27 73 240 237 241 247 239 219 185 213 227 56 269 113 82 63 122 132 139 137 140 135 130 130 123 124 121 122 123 126 125 126 132 134 130 131 131 126 118 110 112 114 114 115 119 122 112 105 126
36 101 123 239 242 255 264 198 187 212 186 164 82 79 35 134 131 142 136 138 141 135 132 130 127 126 123 123 118 121 124 124 127 128 130 135 134 127 119 112 114 112 118 127 123 121 107 126 130
154 110 231 241 258 278 259 179 204 210 182 202 164 94 108 150 140 140 136 137 137 135 129 126 129 128 121 125 118 111 123 126 128 129 127 126 127 126 122 127 127 130 142 138 129 97 80 76 77
142 114 250 235 238 276 267 251 233 192 182 89 129 130 195 165 137 130 135 138 135 140 136 135 135 127 123 130 125 121 121 124 126 127 127 122 123 126 130 130 134 140 143 137 95 84 83 84 78
136 139 241 235 207 254 305 312 355 73 131 186 185 159 162 148 138 134 134 138 142 151 149 140 137 134 126 134 133 124 124 126 128 128 128 123 129 127 135 142 142 134 123 103 90 96 82 89 74
165 206 229 204 223 262 280 270 320 114 175 216 130 160 146 138 144 145 156 155 157 162 156 143 139 145 137 146 141 134 137 133 133 134 126 112 122 136 137 142 142 137 134 108 91 93 95 88 77
213 232 237 261 250 257 270 272 260 327 195 181 181 159 152 152 151 152 162 162 162 163 158 157 143 157 143 144 144 138 139 140 134 137 137 134 132 135 133 143 137 113 94 66 78 84 90 86 80
259 251 210 265 259 271 265 274 281 246 214 235 166 160 154 162 158 158 161 161 160 161 163 160 150 155 146 146 152 146 146 145 147 158 154 147 152 154 164 169 131 128 137 96 88 92 102 97 95
240 234 253 262 259 258 273 260 259 277 191 171 156 160 159 162 157 159 159 157 159 160 168 166 156 155 160 156 150 155 158 159 165 157 172 153 161 171 169 170 144 153 120 107 106 103 100 101 100
277 233 248 254 257 258 260 264 181 261 170 159 160 164 164 161 161 159 161 160 166 161 169 168 163 160 164 168 163 166 166 165 168 174 184 182 177 169 175 164 159 163 143 122 120 121 110 102 109
256 253 260 248 250 250 254 272 205 239 162 169 173 164 169 167 160 169 166 163 167 166 168 171 166 164 167 172 168 165 174 165 170 186 193 184 179 174 167 167 180 171 142 126 111 106 117 115 108
306 265 245 248 241 246 143 260 241 188 163 184 179 173 169 175 176 166 166 165 170 164 169 172 170 172 170 173 175 172 170 172 182 189 190 183 189 169 161 169 178 150 137 136 132 129 126 118 119
218 245 242 257 234 213 176 252 248 173 174 185 191 182 175 177 178 172 165 167 171 169 170 173 174 175 173 172 179 180 171 177 186 188 182 185 196 160 168 172 153 142 132 135 139 130 134 120 117
232 232 255 230 212 184 242 249 270 214 176 184 191 188 182 180 182 174 174 167 170 171 173 174 174 177 176 175 178 178 182 182 177 185 184 185 178 166 166 141 140 144 136 139 138 133 112 128 131
278 257 242 243 211 188 230 244 253 250 163 183 192 189 187 185 184 173 174 172 167 171 175 179 177 178 175 175 178 176 182 182 186 183 184 183 160 157 156 151 147 157 151 154 149 132 128 102 122
246 253 254 264 208 197 241 253 248 249 221 180 183 200 191 187 180 170 174 174 175 171 180 180 181 181 177 170 174 174 167 175 182 190 168 167 157 154 152 156 162 160 140 146 149 149 125 101 168
240 235 239 235 194 267 240 271 248 256 241 173 192 189 193 190 180 171 176 177 178 178 180 183 184 178 183 172 155 131 100 86 149 178 169 170 152 156 151 158 147 156 155 158 160 154 143 161 213
245 233 236 231 164 245 156 258 253 237 235 232 184 189 193 195 192 172 179 179 180 183 178 180 183 180 180 177 177 176 183 174 173 179 169 163 154 155 158 154 154 158 154 153 163 161 155 156 171
249 230 223 213 210 253 255 296 261 281 248 222 200 193 194 191 189 185 179 181 184 179 180 181 180 180 174 178 186 185 180 165 151 163 160 168 159 158 163 156 155 155 155 157 158 159 160 170 155
257 241 252 181 217 240 249 179 263 234 239 224 211 187 192 193 192 191 190 176 181 180 180 178 179 180 175 178 177 189 187 169 164 167 170 170 168 161 159 153 157 163 165 171 170 168 173 173 158
220 205 229 230 234 233 237 184 232 249 241 228 197 174 195 192 190 194 190 175 172 175 177 175 180 180 179 185 180 179 194 180 178 172 171 165 164 151 163 150 160 168 168 173 163 168 173 177 177
233 198 184 201 208 241 241 223 243 234 5 357 45 310 192 190 191 191 186 166 170 174 176 176 176 177 179 182 185 162 169 187 181 184 174 170 170 166 160 164 165 168 170 176 174 167 164 166 178
321 196 221 199 222 196 195 227 278 133 60 42 42 43 234 194 185 186 177 163 168 172 173 172 174 176 179 187 186 182 170 178 184 176 173 173 166 165 166 167 165 167 171 165 157 156 167 175 181
37 8 31 18 211 233 272 219 212 178 113 71 54 60 39 18 151 152 162 145 156 173 168 169 177 176 174 186 188 185 181 156 167 162 176 168 161 163 164 167 168 159 156 150 150 168 171 169 142
13 22 350 285 299 201 155 260 342 73 90 101 79 61 56 49 49 61 81 132 137 143 137 154 167 162 167 187 192 188 172 164 165 170 169 170 164 165 172 168 164 155 157 166 164 162 147 149 156
48 20 13 13 345 328 260 65 10 56 104 97 86 69 54 53 46 60 45 104 119 137 146 140 138 139 124 119 143 235 147 155 162 167 175 170 170 170 172 160 154 149 145 142 170 159 160 161 171